[[{"header":{"parameterUnit":"m.s-1","parameterCategory":1,"la1":30.2991,"la2":30.254,"lo1":-89.0895,"lo2":-89.0444,"dy":0.0017,"dx":0.0017,"nx":28,"ny":28,"refTime":"2025-07-19T03:00:00:Z","depth":0,"parameterNumber":2,"parameterNumberName":"U-component_of_WINDS"},"data":[0,0,0,0,0,0,0,0,0,0,0,0,0,0,0,0,0,0,0,0,0,0,0,0,0,0,0,0,0,0,0,0,0,0,0,0,0,0,0,0,0,0,0,0,0,0,0,0,0,0,0,0,0,0,0,0,0,0,1.3012,1.3014,0,1.3147,1.3148,1.315,1.32,1.32,1.3199,1.3199,1.3339,1.3343,1.3347,0,0,0,0,0,0,0,0,0,0,0,0,0,1.28,1.2803,1.3012,1.3014,1.3016,1.3147,1.3149,1.315,1.32,1.32,1.3199,1.3199,1.3337,1.3342,1.3347,0,0,0,0,0,0,0,0,0,0,0,0,0,1.2909,1.2805,1.3012,1.3056,1.3062,1.3146,1.3149,1.3151,1.32,1.32,1.3199,1.3198,1.3336,1.3342,1.3348,1.3399,0,0,1.3367,1.3369,0,0,0,0,0,0,0,0,1.2903,1.2917,1.3048,1.3053,1.3059,1.3156,1.3125,1.3234,1.32,1.3148,1.3199,1.3198,1.3279,1.3289,1.3316,1.3406,1.3412,1.3367,1.3371,1.3374,1.3375,0,0,0,0,0,0,0,1.2895,1.2911,1.3066,1.305,1.3057,1.307,1.3085,1.3146,1.3215,1.3152,1.3156,1.3171,1.3282,1.331,1.332,1.3414,1.3367,1.3373,1.3376,1.3379,1.3551,1.3552,0,0,0,0,0,0,1.288,1.2905,1.3061,1.307,1.2978,1.3074,1.3091,1.3126,1.3215,1.3228,1.3172,1.3173,1.33,1.3313,1.3325,1.339,1.3374,1.3379,1.3383,1.3551,1.3552,1.3553,0,0,0,0,0,0,1.2875,1.2893,1.3056,1.2988,1.301,1.3078,1.3117,1.3129,1.3157,1.3229,1.3242,1.3188,1.33,1.3316,1.338,1.3396,1.3382,1.3388,1.355,1.3551,1.3552,1.3522,0,0,0,0,0,0,1.2869,1.2891,1.2911,1.2988,1.3013,1.3108,1.3118,1.3132,1.3168,1.3171,1.3248,1.326,1.3301,1.337,1.3386,1.3404,1.3393,1.3548,1.355,1.3552,1.3522,1.3522,1.3522,0,0,0,0,0,1.2861,1.2898,1.2912,1.2931,1.304,1.3109,1.3123,1.3168,1.3169,1.3189,1.3236,1.3258,1.3391,1.3377,1.3395,1.3415,1.3548,1.355,1.3552,1.3522,1.3522,1.3522,0,0,0,0,0,0,1.2822,1.2909,1.2925,1.2988,1.3041,1.3117,1.3145,1.3167,1.3222,1.3222,1.3276,1.3294,1.3353,1.339,1.3372,1.3469,1.3471,1.3477,1.3442,1.3443,1.3443,1.3433,1.3398,0,0,0,0,0,1.282,1.2869,1.2943,1.2991,1.3016,1.3076,1.3108,1.3138,1.3195,1.3217,1.3269,1.3323,1.3378,1.3412,1.3467,1.3527,1.3545,1.355,1.355,1.355,1.3554,1.3589,1.3592,1.3559,1.3559,1.3559,0,0,1.2818,1.2872,1.2899,1.2985,1.3029,1.3078,1.3094,1.3146,1.3184,1.3226,1.3289,1.3328,1.3393,1.3455,1.3485,1.3488,1.3567,1.3552,1.3552,1.3556,1.3591,1.3594,1.3597,1.356,1.356,1.356,0,0,1.2839,1.2885,1.293,1.2973,1.304,1.3079,1.309,1.3163,1.319,1.3254,1.3286,1.3332,1.3424,1.3469,1.3504,1.3541,1.3563,1.3557,1.3558,1.3591,1.3593,1.3596,1.3609,1.3613,1.3561,1.3561,1.3561,0,1.2828,1.2904,1.295,1.3,1.3037,1.3076,1.3122,1.3162,1.3243,1.3267,1.327,1.3386,1.3432,1.3505,1.3514,1.3541,1.3555,1.3548,1.3589,1.3592,1.3595,1.3608,1.3613,1.356,1.356,1.356,1.356,0,1.2887,1.2938,1.2967,1.3043,1.3083,1.313,1.3184,1.3219,1.3245,1.3284,1.3348,1.3405,1.3471,1.3491,1.3517,1.3567,1.3567,1.3578,1.3582,1.3596,1.3609,1.3614,1.3558,1.3558,1.3559,1.3559,0,0,1.2887,1.2988,1.2997,1.3032,1.3108,1.3149,1.3199,1.3262,1.3291,1.3345,1.3388,1.3465,1.3475,1.3515,1.3547,1.3575,1.36,1.3583,1.3586,1.3584,1.3658,1.3649,1.3654,1.3615,1.3616,1.3617,1.3653,0,1.2918,1.3008,1.3051,1.3121,1.317,1.3207,1.325,1.3302,1.3339,1.3386,1.3428,1.3481,1.3491,1.3515,1.3545,1.3591,1.3616,1.3589,1.3656,1.3658,1.3638,1.3661,1.3652,1.3682,1.3658,1.3659,1.366,0,1.2966,1.302,1.3095,1.3164,1.3186,1.3224,1.3285,1.333,1.3388,1.3414,1.3457,1.3487,1.3541,1.354,1.3614,1.3595,1.3625,1.3651,1.3654,1.3662,1.3659,1.3669,1.3693,1.3697,1.3668,1.3667,1.3667,0,1.2959,1.3049,1.3106,1.3135,1.3217,1.3243,1.3278,1.3336,1.3372,1.3426,1.3449,1.3508,1.3541,1.3586,1.3632,1.3628,1.3702,1.3705,1.3725,1.3723,1.3739,1.3737,1.3767,1.3758,1.3758,1.3758,1.3758,0,1.2989,1.3033,1.3104,1.3138,1.3189,1.3238,1.3287,1.3326,1.3377,1.342,1.3456,1.3496,1.3554,1.3601,1.3638,1.3693,1.3708,1.373,1.3739,1.3727,1.3724,1.3747,1.3746,1.3759,1.3759,1.3759,1.3758,0,1.2989,1.3038,1.3102,1.3175,1.3194,1.3228,1.3291,1.3326,1.3365,1.3419,1.3434,1.3495,1.3552,1.3603,1.3678,1.3703,1.376,1.3771,1.374,1.3745,1.3761,1.3759,1.3807,1.3816,1.38,1.38,1.38,0,1.3005,1.304,1.3116,1.3147,1.3182,1.3232,1.3268,1.3317,1.3353,1.3422,1.3449,1.3508,1.3559,1.3648,1.37,1.3758,1.377,1.3783,1.378,1.3766,1.377,1.3768,1.3771,1.3783,1.3783,1.3783,1.3783,0,1.3028,1.305,1.31,1.3159,1.3201,1.3249,1.3299,1.3322,1.3381,1.3419,1.3478,1.3517,1.3593,1.3652,1.3715,1.3753,1.3778,1.3784,1.3791,1.3779,1.3759,1.377,1.3739,1.3783,1.3783,1.3783,1.3783,1.3783,1.3037,1.3069,1.3128,1.3182,1.3225,1.327,1.3306,1.3349,1.3399,1.3465,1.3491,1.355,1.3608,1.3695,1.3732,1.3779,1.3784,1.3795,1.3798,1.3799,1.3797,1.3751,1.3791,1.3791,1.3791,1.3791,1.3791,0,1.3061,1.31,1.315,1.3218,1.3261,1.328,1.3336,1.337,1.3422,1.3473,1.3521,1.3588,1.3645,1.37,1.376,1.3787,1.38,1.3801,1.38,1.3808,1.379,1.3777,1.3789,1.3789,1.3789,1.3789,1.3789,1.3789,1.3079,1.3135,1.3164,1.3241,1.3281,1.3339,1.3369,1.3411,1.3452,1.3524,1.3571,1.3607,1.366,1.3723,1.3776,1.3791,1.3811,1.3809,1.3827,1.3809,1.3809,1.3809,1.3797,1.3813,1.3813,1.3841,1.3841,1.3841]},{"header":{"parameterUnit":"m.s-1","parameterCategory":1,"la1":30.2991,"la2":30.254,"lo1":-89.0895,"lo2":-89.0444,"dy":0.0017,"dx":0.0017,"nx":28,"ny":28,"refTime":"2025-07-19T03:00:00:Z","depth":0,"parameterNumber":3,"parameterNumberName":"V-component_of_WINDS"},"data":[0,0,0,0,0,0,0,0,0,0,0,0,0,0,0,0,0,0,0,0,0,0,0,0,0,0,0,0,0,0,0,0,0,0,0,0,0,0,0,0,0,0,0,0,0,0,0,0,0,0,0,0,0,0,0,0,0,0,4.8367,4.8367,0,4.8331,4.8331,4.833,4.8323,4.8324,4.8324,4.8324,4.8281,4.8279,4.8278,0,0,0,0,0,0,0,0,0,0,0,0,0,4.8425,4.8424,4.8368,4.8367,4.8367,4.8331,4.8331,4.833,4.8323,4.8324,4.8324,4.8324,4.8281,4.8279,4.8278,0,0,0,0,0,0,0,0,0,0,0,0,0,4.8396,4.8424,4.8368,4.8359,4.8358,4.8331,4.8331,4.833,4.8323,4.8324,4.8324,4.8325,4.8282,4.828,4.8277,4.8254,0,0,4.8271,4.827,0,0,0,0,0,0,0,0,4.8397,4.8393,4.8361,4.836,4.8358,4.8332,4.8335,4.8304,4.8323,4.8336,4.8324,4.8325,4.8297,4.8294,4.8286,4.8252,4.825,4.827,4.8269,4.8268,4.8268,0,0,0,0,0,0,0,4.8399,4.8395,4.8353,4.836,4.8359,4.8355,4.8351,4.8329,4.8314,4.8335,4.8335,4.8331,4.8296,4.8288,4.8284,4.825,4.8271,4.8269,4.8267,4.8266,4.8194,4.8194,0,0,0,0,0,0,4.8404,4.8397,4.8354,4.8352,4.838,4.8354,4.835,4.834,4.8315,4.8311,4.833,4.8331,4.8291,4.8287,4.8283,4.8253,4.8268,4.8266,4.8265,4.8195,4.8194,4.8194,0,0,0,0,0,0,4.8405,4.84,4.8356,4.8374,4.8368,4.8352,4.8342,4.8339,4.8331,4.8311,4.8308,4.8325,4.8291,4.8286,4.8262,4.8252,4.8265,4.8263,4.8196,4.8195,4.8194,4.8195,0,0,0,0,0,0,4.8407,4.8401,4.8393,4.8374,4.8367,4.8337,4.8341,4.8338,4.8328,4.8327,4.8305,4.8301,4.8291,4.8265,4.826,4.8249,4.8261,4.8196,4.8195,4.8194,4.8196,4.8194,4.8193,0,0,0,0,0,4.8409,4.8394,4.8393,4.8388,4.8358,4.8336,4.8332,4.8323,4.8327,4.8318,4.8305,4.8302,4.8254,4.8263,4.8256,4.8245,4.8197,4.8196,4.8194,4.8196,4.8195,4.8193,0,0,0,0,0,0,4.841,4.8391,4.839,4.8369,4.8355,4.8335,4.8324,4.8322,4.8304,4.8305,4.8292,4.8287,4.8263,4.8251,4.8261,4.8221,4.8225,4.8223,4.8229,4.8227,4.8226,4.8229,4.826,0,0,0,0,0,4.8408,4.8394,4.8378,4.836,4.8354,4.834,4.833,4.8325,4.8309,4.8302,4.8287,4.827,4.8251,4.8239,4.822,4.8194,4.8188,4.8183,4.8182,4.8181,4.8178,4.8162,4.816,4.8189,4.8189,4.8189,0,0,4.8403,4.8391,4.8383,4.836,4.8349,4.8332,4.8335,4.8318,4.8305,4.8299,4.8275,4.8264,4.8243,4.8218,4.8206,4.8208,4.8169,4.8179,4.8179,4.8176,4.8161,4.8158,4.8155,4.8188,4.8188,4.8189,0,0,4.8387,4.8377,4.8361,4.835,4.8333,4.8324,4.832,4.8302,4.8295,4.8271,4.8266,4.8249,4.8217,4.8203,4.8191,4.8168,4.8164,4.8163,4.8155,4.8139,4.8137,4.8135,4.8126,4.8123,4.816,4.816,4.816,0,4.8382,4.836,4.8353,4.8336,4.8326,4.8321,4.8304,4.8292,4.8269,4.8261,4.8264,4.8223,4.8209,4.818,4.8174,4.8165,4.8159,4.8165,4.8139,4.8136,4.8134,4.8125,4.8122,4.816,4.816,4.816,4.816,0,4.8355,4.8339,4.8328,4.8308,4.8296,4.8279,4.8268,4.8256,4.8251,4.8242,4.8217,4.82,4.8178,4.817,4.8165,4.814,4.8141,4.8142,4.8146,4.8131,4.8122,4.8119,4.816,4.816,4.816,4.816,0,0,4.8337,4.8314,4.831,4.8301,4.8281,4.8268,4.825,4.823,4.822,4.8204,4.8187,4.816,4.816,4.8147,4.8139,4.8126,4.8108,4.8128,4.8127,4.8123,4.8077,4.8077,4.8073,4.8105,4.8104,4.8104,4.8079,0,4.8317,4.8288,4.8281,4.8254,4.8238,4.8234,4.8218,4.8203,4.8193,4.8177,4.8165,4.8146,4.8148,4.814,4.8127,4.8113,4.8098,4.8115,4.8087,4.8086,4.8092,4.8069,4.8068,4.8045,4.8075,4.8075,4.8074,0,4.829,4.8276,4.8248,4.8231,4.8224,4.821,4.8191,4.8176,4.8158,4.8152,4.8138,4.8131,4.811,4.8116,4.8086,4.8097,4.8085,4.8076,4.8075,4.8071,4.8079,4.8063,4.8038,4.8034,4.8069,4.8069,4.807,0,4.8279,4.8252,4.8232,4.8224,4.8204,4.8194,4.8184,4.8167,4.8156,4.8138,4.813,4.8109,4.8098,4.8081,4.8068,4.8074,4.8038,4.8043,4.803,4.803,4.8022,4.8022,4.7993,4.8016,4.8016,4.8016,4.8016,0,4.8257,4.824,4.8227,4.8214,4.8195,4.8186,4.8166,4.8156,4.8141,4.8124,4.8118,4.8103,4.8088,4.807,4.8059,4.8035,4.8029,4.8022,4.8019,4.8022,4.8023,4.8013,4.8014,4.8015,4.8015,4.8016,4.8016,0,4.824,4.8231,4.8209,4.8192,4.8187,4.8173,4.8157,4.8143,4.8134,4.8113,4.8108,4.8092,4.807,4.8056,4.8028,4.8021,4.7993,4.7991,4.8,4.7998,4.7985,4.7986,4.7948,4.7942,4.797,4.797,4.797,0,4.8226,4.8213,4.8195,4.8185,4.8176,4.816,4.8148,4.8138,4.8126,4.8105,4.8093,4.8072,4.8054,4.8019,4.8003,4.7981,4.7978,4.7966,4.7974,4.7977,4.7976,4.7976,4.7974,4.7964,4.7964,4.7964,4.7963,0,4.8202,4.8198,4.8183,4.8166,4.8153,4.8139,4.8124,4.8115,4.8103,4.8089,4.8068,4.8054,4.8026,4.8003,4.798,4.7967,4.7962,4.7961,4.7957,4.7959,4.7964,4.7959,4.7995,4.7962,4.7962,4.7962,4.7962,4.7962,4.8186,4.8174,4.8159,4.8142,4.813,4.8117,4.8103,4.8093,4.8076,4.8054,4.8048,4.8025,4.8007,4.7975,4.7962,4.7942,4.7944,4.7938,4.7936,4.7934,4.7933,4.7968,4.7938,4.7938,4.7938,4.7938,4.7938,0,4.816,4.8151,4.8135,4.8116,4.8102,4.8101,4.8085,4.8072,4.8053,4.8038,4.8021,4.7995,4.7973,4.7956,4.7933,4.7921,4.7918,4.7915,4.7915,4.7912,4.7934,4.794,4.7918,4.7918,4.7918,4.7918,4.7918,4.7918,4.8145,4.8125,4.8119,4.8092,4.8082,4.8062,4.8052,4.8039,4.8026,4.7999,4.7982,4.7972,4.7954,4.793,4.7909,4.7905,4.7896,4.7893,4.7888,4.7908,4.791,4.7913,4.7918,4.7892,4.7892,4.7867,4.7867,4.7867]}]]